Location: Ash Swamp
(41.5170°N, 74.6157°W)
Time: 17:06:26
(UTC+00:00)

Abrixas rocket - Pass Details

Date: 14 July 2020
Orbit: 339 x 347 km, 48.4° (Epoch: 05 August)

Event Time Altitude Azimuth Distance (km) Brightness Sun altitude
Exits shadow 07:39:38 - 303° (WNW) 1,786 5.4 -17.4°
Reaches altitude 10° 07:40:53 10° 309° (NW) 1,284 4.7 -17.2°
Maximum altitude 07:43:37 39° 21° (NNE) 523 3.3 -16.9°
Drops below altitude 10° 07:46:20 10° 93° (E) 1,279 5.2 -16.6°
Sets 07:48:24 0° 101° (ESE) 2,116 6.2 -16.4°
